• în România
  • Lista ţărilor
  • Pe 7 zile
  • Temperatura apei
  • Hartă satelitară
  • Meteo pe hartă
  • Widget-uri
  • user-avatar
    Intrare

    Meteo pe oră la Parakou

    Astăzi, 21 Octombrie, Sâmbătă

    Timp Temperatura Precipitaţii Vânt Presiune Umiditate
    00:00 +26°C° 0 mm 1 m/s 729 mmHg 60%
    01:00 +26°C° 0 mm 1 m/s 728 mmHg 64%
    02:00 +25°C° 0 mm 1 m/s 728 mmHg 68%
    03:00 +25°C° 0 mm 1 m/s 728 mmHg 72%
    04:00 +25°C° 0 mm 1 m/s 728 mmHg 76%
    05:00 +24°C° 0 mm 1 m/s 728 mmHg 81%
    06:00 +24°C° 0 mm 1 m/s 728 mmHg 86%
    07:00 +26°C° 0 mm 1 m/s 729 mmHg 77%
    08:00 +29°C° 0 mm 1 m/s 729 mmHg 68%
    09:00 +31°C° 0 mm 1 m/s 729 mmHg 58%
    10:00 +34°C° 0 mm 1 m/s 729 mmHg 49%
    11:00 +36°C° 0 mm 1 m/s 729 mmHg 39%
    12:00 +39°C° 0 mm 1 m/s 728 mmHg 30%
    13:00 +39°C° 0 mm 1 m/s 727 mmHg 29%
    14:00 +39°C° 0 mm 1 m/s 727 mmHg 27%
    15:00 +39°C° 0 mm 1 m/s 726 mmHg 26%
    16:00 +36°C° 0 mm 1 m/s 726 mmHg 30%
    17:00 +33°C° 0 mm 1 m/s 726 mmHg 34%
    18:00 +31°C° 0 mm 1 m/s 726 mmHg 38%
    19:00 +30°C° 0 mm 1 m/s 727 mmHg 41%
    20:00 +30°C° 0 mm 1 m/s 727 mmHg 44%
    21:00 +29°C° 0 mm 1 m/s 728 mmHg 46%
    22:00 +28°C° 0 mm 1 m/s 728 mmHg 49%
    23:00 +28°C° 0 mm 2 m/s 728 mmHg 52%

    Mâine, 22 Octombrie, Duminică

    Timp Temperatura Precipitaţii Vânt Presiune Umiditate
    00:00 +28°C° 0 mm 2 m/s 728 mmHg 55%
    01:00 +27°C° 0 mm 2 m/s 728 mmHg 63%
    02:00 +26°C° 0 mm 2 m/s 728 mmHg 71%
    03:00 +26°C° 0 mm 2 m/s 727 mmHg 78%
    04:00 +26°C° 0 mm 2 m/s 728 mmHg 82%
    05:00 +25°C° 0 mm 2 m/s 728 mmHg 86%
    06:00 +25°C° 0 mm 2 m/s 728 mmHg 90%
    07:00 +27°C° 0 mm 2 m/s 729 mmHg 82%
    08:00 +29°C° 0 mm 2 m/s 729 mmHg 73%
    09:00 +31°C° 0 mm 2 m/s 730 mmHg 64%
    10:00 +34°C° 0 mm 2 m/s 729 mmHg 56%
    11:00 +36°C° 0 mm 2 m/s 729 mmHg 48%
    12:00 +37°C° 0 mm 2 m/s 728 mmHg 41%
    13:00 +37°C° 0 mm 1 m/s 727 mmHg 38%
    14:00 +37°C° 0 mm 1 m/s 727 mmHg 36%
    15:00 +35°C° 0 mm 0 m/s 726 mmHg 33%
    16:00 +35°C° 0 mm 1 m/s 726 mmHg 37%
    17:00 +33°C° 0 mm 1 m/s 726 mmHg 41%
    18:00 +32°C° 0 mm 1 m/s 726 mmHg 45%
    19:00 +31°C° 0 mm 2 m/s 727 mmHg 50%
    20:00 +30°C° 0 mm 2 m/s 728 mmHg 56%
    21:00 +29°C° 0 mm 3 m/s 728 mmHg 61%
    22:00 +28°C° 0 mm 3 m/s 728 mmHg 68%
    23:00 +28°C° 0 mm 3 m/s 728 mmHg 74%

    Poimâine, 23 Octombrie, Luni

    Timp Temperatura Precipitaţii Vânt Presiune Umiditate
    00:00 +27°C° 0 mm 3 m/s 728 mmHg 80%
    01:00 +26°C° 0,1 mm 3 m/s 727 mmHg 83%
    02:00 +26°C° 0,1 mm 2 m/s 727 mmHg 87%
    03:00 +25°C° 0,1 mm 2 m/s 727 mmHg 90%
    04:00 +25°C° 0 mm 2 m/s 727 mmHg 91%
    05:00 +25°C° 0 mm 2 m/s 727 mmHg 93%
    06:00 +24°C° 0 mm 2 m/s 727 mmHg 94%
    07:00 +27°C° 0 mm 2 m/s 728 mmHg 84%
    08:00 +29°C° 0 mm 2 m/s 728 mmHg 73%
    09:00 +31°C° 0 mm 2 m/s 729 mmHg 63%
    10:00 +34°C° 0 mm 2 m/s 728 mmHg 55%
    11:00 +36°C° 0 mm 2 m/s 727 mmHg 47%
    12:00 +37°C° 0 mm 1 m/s 727 mmHg 38%
    13:00 +37°C° 0 mm 1 m/s 726 mmHg 36%
    14:00 +39°C° 0 mm 1 m/s 726 mmHg 33%
    15:00 +36°C° 0 mm 0 m/s 725 mmHg 31%
    16:00 +36°C° 0 mm 1 m/s 725 mmHg 36%
    17:00 +34°C° 0 mm 1 m/s 725 mmHg 40%
    18:00 +32°C° 0 mm 2 m/s 725 mmHg 45%
    19:00 +31°C° 0 mm 2 m/s 726 mmHg 49%
    20:00 +30°C° 0 mm 2 m/s 726 mmHg 53%
    21:00 +29°C° 0 mm 2 m/s 727 mmHg 56%
    22:00 +29°C° 0 mm 2 m/s 727 mmHg 61%
    23:00 +28°C° 0 mm 3 m/s 727 mmHg 66%

    24 Octombrie, Marţi

    Timp Temperatura Precipitaţii Vânt Presiune Umiditate
    00:00 +28°C° 0 mm 3 m/s 727 mmHg 71%
    01:00 +27°C° 0,1 mm 3 m/s 727 mmHg 76%
    02:00 +27°C° 0,1 mm 2 m/s 726 mmHg 81%
    03:00 +26°C° 0,1 mm 2 m/s 726 mmHg 85%
    04:00 +26°C° 0 mm 2 m/s 726 mmHg 87%
    05:00 +25°C° 0 mm 2 m/s 727 mmHg 89%
    06:00 +25°C° 0 mm 2 m/s 727 mmHg 91%
    07:00 +27°C° 0 mm 2 m/s 727 mmHg 82%
    08:00 +29°C° 0 mm 2 m/s 728 mmHg 72%
    09:00 +31°C° 0 mm 2 m/s 728 mmHg 63%
    10:00 +34°C° 0 mm 2 m/s 727 mmHg 55%
    11:00 +36°C° 0 mm 2 m/s 727 mmHg 47%
    12:00 +39°C° 0 mm 1 m/s 726 mmHg 39%
    13:00 +37°C° 0 mm 1 m/s 725 mmHg 38%
    14:00 +37°C° 0 mm 1 m/s 725 mmHg 36%
    15:00 +35°C° 0 mm 0 m/s 724 mmHg 35%
    16:00 +36°C° 0 mm 1 m/s 724 mmHg 38%
    17:00 +34°C° 0 mm 1 m/s 725 mmHg 42%
    18:00 +32°C° 0 mm 1 m/s 725 mmHg 45%
    19:00 +32°C° 0 mm 1 m/s 726 mmHg 48%
    20:00 +31°C° 0 mm 1 m/s 726 mmHg 51%
    21:00 +30°C° 0 mm 2 m/s 727 mmHg 54%
    22:00 +29°C° 0 mm 2 m/s 727 mmHg 62%
    23:00 +28°C° 0 mm 3 m/s 727 mmHg 70%

    25 Octombrie, Miercuri

    Timp Temperatura Precipitaţii Vânt Presiune Umiditate
    00:00 +27°C° 0 mm 4 m/s 726 mmHg 78%
    01:00 +27°C° 0 mm 3 m/s 726 mmHg 81%
    02:00 +26°C° 0 mm 3 m/s 726 mmHg 83%
    03:00 +26°C° 0 mm 3 m/s 726 mmHg 86%
    04:00 +25°C° 0 mm 3 m/s 726 mmHg 87%
    05:00 +25°C° 0 mm 2 m/s 727 mmHg 88%
    06:00 +25°C° 0 mm 2 m/s 727 mmHg 89%
    07:00 +27°C° 0 mm 2 m/s 727 mmHg 82%
    08:00 +29°C° 0 mm 3 m/s 728 mmHg 74%
    09:00 +30°C° 0 mm 3 m/s 728 mmHg 67%
    10:00 +32°C° 0 mm 2 m/s 727 mmHg 59%
    11:00 +36°C° 0 mm 2 m/s 727 mmHg 50%
    12:00 +38°C° 0 mm 2 m/s 726 mmHg 42%
    13:00 +38°C° 0 mm 2 m/s 726 mmHg 40%
    14:00 +38°C° 0 mm 2 m/s 725 mmHg 38%
    15:00 +37°C° 0 mm 1 m/s 725 mmHg 35%
    16:00 +36°C° 0 mm 2 m/s 725 mmHg 40%
    17:00 +35°C° 0 mm 2 m/s 726 mmHg 45%
    18:00 +32°C° 0 mm 2 m/s 726 mmHg 49%
    19:00 +31°C° 0 mm 2 m/s 726 mmHg 55%
    20:00 +30°C° 0 mm 2 m/s 727 mmHg 60%
    21:00 +29°C° 0 mm 2 m/s 727 mmHg 65%
    22:00 +29°C° 0,5 mm 2 m/s 727 mmHg 71%
    23:00 +28°C° 0,5 mm 2 m/s 727 mmHg 77%

    26 Octombrie, Joi

    Timp Temperatura Precipitaţii Vânt Presiune Umiditate
    00:00 +27°C° 0,5 mm 2 m/s 727 mmHg 82%
    01:00 +26°C° 0 mm 2 m/s 727 mmHg 85%
    02:00 +26°C° 0 mm 2 m/s 727 mmHg 88%
    03:00 +26°C° 0 mm 2 m/s 726 mmHg 90%
    04:00 +25°C° 0 mm 2 m/s 727 mmHg 92%
    05:00 +25°C° 0 mm 2 m/s 727 mmHg 93%
    06:00 +25°C° 0 mm 1 m/s 728 mmHg 95%
    07:00 +27°C° 0 mm 2 m/s 728 mmHg 85%
    08:00 +29°C° 0 mm 2 m/s 728 mmHg 75%
    09:00 +31°C° 0 mm 2 m/s 729 mmHg 65%
    10:00 +34°C° 0 mm 2 m/s 728 mmHg 56%
    11:00 +36°C° 0 mm 1 m/s 728 mmHg 47%
    12:00 +37°C° 0 mm 0 m/s 727 mmHg 38%
    13:00 +39°C° 0 mm 1 m/s 726 mmHg 35%
    14:00 +39°C° 0 mm 2 m/s 726 mmHg 32%
    15:00 +39°C° 0 mm 2 m/s 725 mmHg 29%
    16:00 +37°C° 0 mm 2 m/s 725 mmHg 33%
    17:00 +35°C° 0 mm 2 m/s 725 mmHg 38%
    18:00 +32°C° 0 mm 1 m/s 725 mmHg 42%
    19:00 +31°C° 0 mm 1 m/s 726 mmHg 45%
    20:00 +30°C° 0 mm 1 m/s 726 mmHg 48%
    21:00 +29°C° 0 mm 2 m/s 726 mmHg 51%
    22:00 +29°C° 0 mm 2 m/s 726 mmHg 55%
    23:00 +28°C° 0 mm 2 m/s 726 mmHg 59%
    Arată mai mult